Flag for U.S.A. Weather past 2 weeks in Amarillo, Texas, U.S.A.

28 °F

Ice fog.

Feels Like: 28 °F
Forecast: 27 / 36 °F
Wind: No wind

Location: Amarillo International Airport

Current Time: Nov 29, 2015 at 6:22:05 AM

Latest Report: Nov 29, 2015 at 5:53 AM

Visibility: 4 mi

Pressure: 30.20 "Hg (26.23 "Hg at 1117m altitude)

Humidity: 96%

Dew point: 27 °F

Location of AmarilloLocation

Historic Weather in Amarillo — Graph


Amarillo temperature yesterday

Maximum temperature yesterday: 29 °F (at 6:53 PM)
Minimum temperature yesterday: 22 °F (at 12:53 AM)
Average temperature yesterday: 25 °F

Past Weeks' High & Low Weather Summary

High76 °F (Nov 24, 1:53 PM)97% (Nov 26, 12:53 PM)30.50 "Hg (Nov 26, 12:53 PM)
Low22 °F (Nov 27, 10:53 PM)10% (Nov 24, 2:53 PM)29.21 "Hg (Nov 17, 7:53 AM)
Average43 °F66%30.00 "Hg
* Reported Nov 14 4:53 AM — Nov 29 4:53 AM, Amarillo, Weather by CustomWeather, © 2015

Note: Actual official high and low records may vary slightly from our data, if they occured in-between our weather recording intervals... More about our weather records


Amarillo weather history for previous 24 hours

Time TempWeatherWind HumidityBarometerVisibility
4:53 AM
Sun, Nov 29
28 °FIce fog.9 mph96%30.21 "Hg2 mi
3:53 AM29 °FIce fog.6 mph93%30.23 "Hg2 mi
3:03 AM28 °FIce fog.6 mph96%30.20 "Hg1 mi
2:53 AM28 °FIce fog.5 mph93%30.27 "Hg2 mi
1:53 AM28 °FIce fog.5 mph93%30.26 "Hg2 mi
12:53 AM28 °FIce fog.6 mph93%30.28 "Hg3 mi
11:53 PM
Sat, Nov 28
28 °FIce fog.8 mph93%30.28 "Hg6 mi
10:53 PM28 °FIce fog.7 mph93%30.30 "Hg5 mi
9:53 PM28 °FMostly cloudy.7 mph93%30.29 "Hg9 mi
8:53 PM29 °FMostly cloudy.6 mph89%30.31 "Hg10 mi
7:53 PM29 °FLow clouds.7 mph89%30.29 "Hg10 mi
6:53 PM29 °FLow clouds.6 mph89%30.28 "Hg10 mi
4:53 PM28 °FLow clouds.8 mph89%30.25 "Hg10 mi
3:53 PM28 °FLow clouds.6 mph93%30.27 "Hg7 mi
2:53 PM27 °FIce fog.6 mph92%30.27 "Hg1 mi
1:53 PM27 °FIce fog.7 mph92%30.29 "Hg1 mi
12:53 PM26 °FIce fog.6 mph92%30.33 "Hg2 mi
11:53 AM26 °FIce fog.8 mph92%30.35 "Hg2 mi
10:53 AM25 °FIce fog.9 mph92%30.36 "Hg2 mi
9:53 AM25 °FIce fog.13 mph92%30.35 "Hg2 mi
8:58 AM23 °FIce fog.9 mph96%30.27 "Hg2 mi
8:00 AM23 °FLight snow. Ice fog.12 mph96%30.26 "Hg1 mi
6:53 AM23 °FLight snow. Ice fog.13 mph96%30.34 "Hg1 mi
Weather by CustomWeather, © 2015

See weather overviewHow to use our weather pages